Regional Weather Roundup
Issued by NWS Charleston, SC

Current Version | Previous Version | Text Only | Print | Product List | Glossary On
Versions: 1 2 3 4 5 6 7 8 9 10 11 12 13 14 15 16 17 18 19 20 21 22 23 24 25 26 27 28 29 30 31 32 33 34 35 36 37 38 39 40 41 42 43 44 45 46 47 48 49 50
000 ASUS42 KCHS 281525 RWRCHS REGIONAL WEATHER ROUNDUP NATIONAL WEATHER SERVICE CHARLESTON SC 1100 AM EDT MON JUL 28 2014 NOTE: "FAIR" INDICATES FEW OR NO CLOUDS BELOW 12,000 FEET WITH NO SIGNIFICANT WEATHER AND/OR OBSTRUCTIONS TO VISIBILITY. NOT ALL STATIONS ARE QUALITY CONTROLLED BY THE NATIONAL WEATHER SERVICE. USE DATA WITH CAUTION...ESPECIALLY DEWPOINT OBSERVATIONS. SCZ027-030-031-034>040-042>050-281600- ...SOUTH CAROLINA... CITY SKY/WX TMP DP RH WIND PRES REMARKS N CHARLESTON PTSUNNY 91 76 61 W12G17 29.88S HX 103 WATERFRONT PRK N/A 88 N/A N/A SW9G20 N/A FORT JOHNSON NOT AVBL MOUNT PLEASANT FAIR 90 79 70 W10 29.87S HAZE HX 105 JOHNS ISLAND MOSUNNY 90 72 55 W12 29.89R HX 96 PINOPOLIS N/A 86 75 70 W13 29.78F HX 95 MONCKS CORNER N/A 88 79 74 SW6 29.87S HX 102 SUMMERVILLE FAIR 86 77 74 W5 29.89R HX 97 BEAUFORT MCAS PTSUNNY 90 77 65 W13 29.90S HX 103 BEAUFORT ARPT FAIR 90 77 66 W18G24 29.90S HX 102 HILTON HEAD IS MOSUNNY 90 79 70 SW13 29.92S HX 105 GEORGETOWN NOT AVBL WALTERBORO PTSUNNY 90 73 58 W12 29.89S HX 98 ORANGEBURG CLOUDY 85 74 69 W13 29.88R HX 92 BARNWELL FAIR 88 75 66 W9G18 29.89S HX 97 AIKEN FAIR 88 77 70 W12 29.92S HX 100 MANNING FAIR 86 77 74 SW10G16 29.86S HX 97 KINGSTREE NOT AVBL COLUMBIA CLOUDY 90 73 57 W15 29.85S HX 98 SUMTER CLOUDY 84 76 76 W10 29.84S HX 93 FLORENCE PTSUNNY 86 75 69 SW9 29.84R HX 95 MYRTLE BEACH MOSUNNY 88 75 66 W6 29.84F HX 97 N MYRTLE BEACH PTSUNNY 87 75 67 W10 29.84S HX 96 $$ GAZ063-065-086>088-099>101-113>116-118-119-134-136>141-150-281600- ...GEORGIA... CITY SKY/WX TMP DP RH WIND PRES REMARKS SAVANNAH ARPT MOSUNNY 91 76 61 W10 29.92S HX 103 HUNTER AAF SUNNY 90 77 66 SW13 29.91S HX 103 FORT STEWART MOSUNNY 91 76 61 W8 29.93S HX 102 STATESBORO NOT AVBL SYLVANIA MOSUNNY 90 80 73 W8 29.92S HX 107 CLAXTON FAIR 91 79 66 W10 29.93S HX 107 THOMSON MOSUNNY 89 79 72 W9G17 29.95R HX 104 AUGUSTA-BUSH MOSUNNY 88 75 65 W14G22 29.88S HX 97 AUGUSTA-DANIEL MOSUNNY 89 75 63 VRB5 29.90S HX 99 SWAINSBORO PTSUNNY 91 79 66 W10G18 29.93S HX 107 VIDALIA N/A 90 75 62 W10G18 29.95S HX 100 ALMA NOT AVBL WAYCROSS SUNNY 94 80 63 W12 29.98S HX 114 JESUP NOT AVBL BRUNSWICK SUNNY 91 73 55 W9 29.97S HX 100 SAINT SIMONS SUNNY 87 76 69 SW9 29.96S HX 97 $$ SCZ027-028-034-036>038-045-046-048>050-GAZ119-141-281600- ...LAKE AND SUPPLEMENTAL COASTAL OBSERVATIONS... STATION/POSITION TIME TEMP WIND PRES WAVE SWELL AIR SEA DIR/SP/G HT/PER HT/PER/DIR (UTC) (F) (DEG/KT/KT) (MB) (FT/S) (FT/S/D) UPR LAKE MARION NOT AVBL WINYAH BAY 1500 85 240/ 9 1011.0R LAKE MURRAY 1500 83 260/ 7/ 13 1010.5S ACE BASIN NERRS 1500 87 250/ 4 1012.0S FORT PULASKI 1500 88 230/ 8/ 14 1013.5R SAPELO ISLAND 1500 88 250/ 10 1015.0S $$ ANZ835-935-AMZ111-154-330-350-352-354-374-450-454-472-281600- ...C-MAN AND BUOY OBSERVATIONS... STATION/POSITION TIME TEMP WIND PRES WAVE SWELL AIR SEA DIR/SP/G HT/PER HT/PER/DIR (UTC) (F) (DEG/KT/KT) (MB) (FT/S) (FT/S/D) FOLLY BEACH CMAN 1500 87 220/ 15/ 18 1012.3R BUOY 41004 1500 84 83 240/ 16/ 19 1011.2R 4/ 6 2/10 BUOY 41008 1500 84 84 240/ 14/ 16 1013.8R 3/ 4 2/130/ 9 5E ST. MARYS GA 1500 84 N/A 2/11 FRYING PAN BUOY NOT AVBL BUOY 41025 1400 VRB 17/ 21 1008.4R 6/ 7 2/150/ 8 CAPE LOOKOUT NC 1500 83 250/ 12/ 16 1009.5R BUOY 41002 1409 82 81 240/ 17/ 19 1015.0F 6/ 7 2/170/12 BUOY 41010 1500 84 84 270/ 16/ 17 1017.3S 4/ 5 2/110/ 9 BUOY 41012 NOT AVBL ST AUGUSTINE FL 1500 87 270/ 12/ 17 1016.9S CAPERS NEARSHORE 1400 84 250/ 17/ 21 N/A FRIPP NEARSHORE NOT AVBL $$

USA.gov is the U.S. government's official web portal to all federal, state and local government web resources and services.